EW2593 Weather Reports


time (UTC)temp
C
wind
direction
speed
KPH
gust
KPH
rain 1hr
cm
rain 24hr
cm
rain mn
cm
humidity
%
barometer
mb
20260507113008 6 191 0.0 0.0 0.00 0.00 0.00 59 1016.0
20260507111509 6 191 0.0 0.0 0.00 0.00 0.00 58 1015.9
20260507110105 6 191 0.0 0.0 0.00 0.00 0.00 58 1016.1
20260507104605 6 191 0.0 0.0 0.00 0.00 0.00 55 1016.1
20260507103130 7 191 0.0 0.0 0.00 0.00 0.00 54 1015.7
20260507101518 7 191 0.0 0.0 0.00 0.00 0.00 53 1015.7
20260507100010 8 191 0.0 0.0 0.00 0.00 0.00 51 1015.7
20260507094515 8 191 1.6 3.2 0.00 0.00 0.00 50 1015.9
20260507093056 10 191 0.0 1.6 0.00 0.00 0.00 47 1015.8
20260507091535 10 191 0.0 1.6 0.00 0.00 0.00 47 1016.0
20260507090014 11 252 0.0 0.0 0.00 0.00 0.00 44 1016.1
20260507084606 11 254 0.0 1.6 0.00 0.00 0.00 44 1016.2
20260507083015 11 254 0.0 3.2 0.00 0.00 0.00 44 1016.2
20260507081505 11 259 0.0 4.8 0.00 0.00 0.00 44 1016.2
20260507080112 11 309 1.6 8.0 0.00 0.00 0.00 43 1016.1
20260507074507 11 360 1.6 8.0 0.00 0.00 0.00 43 1016.1
20260507073112 12 289 1.6 6.4 0.00 0.00 0.00 43 1016.2
20260507071529 12 267 0.0 8.0 0.00 0.00 0.00 42 1016.3
20260507070118 12 289 0.0 3.2 0.00 0.00 0.00 42 1016.3
20260507064524 12 279 1.6 6.4 0.00 0.00 0.00 41 1016.4
20260507063115 12 232 1.6 8.0 0.00 0.00 0.00 41 1016.4
20260507061505 12 227 1.6 11.3 0.00 0.00 0.00 41 1016.2
20260507060020 12 227 4.8 9.7 0.00 0.00 0.00 40 1016.1
20260507054616 12 241 4.8 12.9 0.00 0.00 0.00 40 1016.0
20260507053018 13 259 3.2 9.7 0.00 0.00 0.00 40 1016.2
20260507051609 13 249 6.4 14.5 0.00 0.00 0.00 40 1016.1
20260507050107 13 235 4.8 8.0 0.00 0.00 0.00 40 1016.1
20260507044600 13 303 4.8 12.9 0.00 0.00 0.00 39 1015.9
20260507043056 13 265 3.2 14.5 0.00 0.00 0.00 39 1016.0
20260507041528 13 360 4.8 12.9 0.00 0.00 0.00 38 1015.8
20260507040053 13 333 0.0 8.0 0.00 0.00 0.00 38 1015.6
20260507034515 14 307 3.2 12.9 0.00 0.00 0.00 37 1015.4
20260507033021 14 305 3.2 8.0 0.00 0.00 0.00 36 1015.2
20260507031520 15 243 4.8 9.7 0.00 0.00 0.00 36 1015.1
20260507030013 15 317 4.8 12.9 0.00 0.00 0.00 35 1014.9
20260507024534 15 360 6.4 16.1 0.00 0.00 0.00 34 1014.6
20260507023022 16 360 6.4 19.3 0.00 0.00 0.00 33 1014.3
20260507021502 16 20 11.3 20.9 0.00 0.00 0.00 32 1014.2
20260507020004 17 360 8.0 22.5 0.00 0.00 0.00 31 1014.1
20260507014502 18 33 12.9 27.4 0.00 0.00 0.00 30 1014.0
20260507013101 18 360 9.7 22.5 0.00 0.00 0.00 29 1013.8
20260507011523 19 10 9.7 25.7 0.00 0.00 0.00 28 1013.7
20260507010023 21 34 9.7 22.5 0.00 0.00 0.00 26 1013.9
20260507004511 21 33 8.0 17.7 0.00 0.00 0.00 24 1013.8
20260507003001 21 323 4.8 17.7 0.00 0.00 0.00 23 1013.9
20260507001509 22 360 6.4 14.5 0.00 0.00 0.00 23 1013.9
20260507000121 22 305 3.2 11.3 0.00 0.00 0.00 23 1014.0
20260506234509 23 57 4.8 17.7 0.00 0.00 0.00 22 1013.8
20260506233019 22 289 6.4 16.1 0.00 0.00 0.00 22 1014.1
20260506231556 23 232 8.0 16.1 0.00 0.00 0.00 22 1014.0
20260506230010 22 30 6.4 17.7 0.00 0.00 0.00 22 1014.0
20260506224523 21 247 4.8 12.9 0.00 0.00 0.00 23 1014.2
20260506223105 22 257 4.8 14.5 0.00 0.00 0.00 22 1014.4
20260506221508 21 109 8.0 19.3 0.00 0.00 0.00 24 1014.8
20260506220106 21 103 3.2 17.7 0.00 0.00 0.00 23 1014.9
20260506214603 21 92 11.3 20.9 0.00 0.00 0.00 23 1015.2
20260506213021 22 308 1.6 19.3 0.00 0.00 0.00 20 1015.4
20260506211537 22 188 0.0 12.9 0.00 0.00 0.00 22 1015.6
20260506210002 22 126 8.0 19.3 0.00 0.00 0.00 22 1015.8
20260506204553 22 123 1.6 16.1 0.00 0.00 0.00 22 1015.9
20260506203115 21 148 1.6 16.1 0.00 0.00 0.00 23 1016.2
20260506201512 21 89 3.2 19.3 0.00 0.00 0.00 24 1016.3
20260506200057 20 52 8.0 17.7 0.00 0.00 0.00 25 1016.2
20260506194504 19 19 4.8 24.1 0.00 0.00 0.00 26 1016.3
20260506193033 19 360 14.5 33.8 0.00 0.00 0.00 26 1016.6
20260506191606 18 51 8.0 27.4 0.00 0.00 0.00 26 1016.6
20260506190008 18 31 6.4 22.5 0.00 0.00 0.00 26 1016.6
20260506184502 18 360 8.0 20.9 0.00 0.00 0.00 26 1016.7
20260506183112 18 59 8.0 19.3 0.00 0.00 0.00 25 1016.8
20260506181604 18 65 11.3 19.3 0.00 0.00 0.00 25 1016.8
20260506180055 18 90 4.8 16.1 0.00 0.00 0.00 28 1017.2
20260506174605 18 49 8.0 17.7 0.00 0.00 0.00 28 1017.0
20260506173001 17 70 3.2 9.7 0.00 0.00 0.00 31 1017.1
20260506171557 16 36 3.2 12.9 0.00 0.00 0.00 32 1017.0
20260506170109 15 16 4.8 16.1 0.00 0.00 0.00 32 1016.9
20260506164502 15 287 4.8 12.9 0.00 0.00 0.00 34 1017.0
20260506163001 14 360 1.6 14.5 0.00 0.00 0.00 36 1017.1
20260506161507 13 138 1.6 12.9 0.00 0.00 0.00 37 1016.9
20260506160029 12 252 1.6 11.3 0.00 0.00 0.00 38 1017.0
20260506154533 12 53 3.2 11.3 0.00 0.00 0.00 39 1017.0
20260506153020 11 335 1.6 6.4 0.00 0.00 0.00 42 1016.9
20260506151508 10 236 3.2 6.4 0.00 0.00 0.00 42 1016.8
20260506150026 9 51 3.2 9.7 0.00 0.00 0.00 46 1016.8
20260506144515 8 32 1.6 8.0 0.00 0.00 0.00 50 1016.6
20260506143106 7 37 0.0 6.4 0.00 0.00 0.00 53 1016.6
20260506141528 6 215 0.0 3.2 0.00 0.00 0.00 57 1016.6
20260506140124 6 215 0.0 1.6 0.00 0.00 0.00 60 1016.4
20260506134602 5 215 0.0 0.0 0.00 0.00 0.00 61 1016.3
20260506133030 5 215 0.0 4.8 0.00 0.00 0.00 64 1016.2
20260506131655 4 215 1.6 6.4 0.00 0.00 0.00 67 1016.1
20260506130120 3 223 0.0 4.8 0.00 0.00 0.00 67 1015.8
20260506124553 4 221 0.0 0.0 0.00 0.00 0.00 64 1015.8
20260506123019 5 222 0.0 3.2 0.00 0.00 0.00 64 1015.5
20260506121558 5 221 0.0 3.2 0.00 0.00 0.00 63 1015.3
20260506120012 5 223 0.0 6.4 0.00 0.00 0.00 64 1015.3
20260506114509 4 14 0.0 0.0 0.00 0.00 0.00 63 1015.4